This is the latest recevied weather packets stored in our database for station/object G4KVI. If no packets are shown the sender has not sent any weather packets the latest 10 day(s).
| Time | Temp. | Humidity | Pressure | Rain* | Wind** | Luminosity | Snow |
|---|---|---|---|---|---|---|---|
| 1788162304 | 63° F | 82% | 759.4 mmHg | 0 in | - | 179 W/m² | - |
| 1788162004 | 63° F | 84% | 759.1 mmHg | 0 in | - | 253 W/m² | - |
| 1788161703 | 62° F | 85% | 759.1 mmHg | 0 in | - | 232 W/m² | - |
| 1788161403 | 62° F | 85% | 759 mmHg | 0 in | - | 198 W/m² | - |
| 1788161103 | 62° F | 86% | 759 mmHg | 0 in | - | 196 W/m² | - |
| 1788160803 | 61° F | 87% | 758.8 mmHg | 0 in | - | 95 W/m² | - |
| 1788160504 | 61° F | 87% | 758.8 mmHg | 0 in | - | 174 W/m² | - |
| 1788160204 | 61° F | 88% | 758.8 mmHg | 0 in | - | 67 W/m² | - |
| 1788159903 | 61° F | 89% | 758.7 mmHg | 0 in | - | 146 W/m² | - |
| 1788159603 | 60° F | 91% | 758.4 mmHg | 0 in | - | 133 W/m² | - |
| 1788159303 | 60° F | 91% | 758.5 mmHg | 0 in | - | 66 W/m² | - |
| 1788159004 | 60° F | 92% | 758.4 mmHg | 0 in | - | 47 W/m² | - |
| 1788158703 | 60° F | 93% | 758.4 mmHg | 0 in | - | 46 W/m² | - |
| 1788158404 | 60° F | 94% | 758.3 mmHg | 0 in | - | 78 W/m² | - |
| 1788158103 | 59° F | 94% | 758.3 mmHg | 0 in | - | 83 W/m² | - |
| 1788157803 | 59° F | 95% | 758.2 mmHg | 0 in | - | 51 W/m² | - |
| 1788157504 | 59° F | 95% | 758.2 mmHg | 0 in | - | 39 W/m² | - |
| 1788157204 | 58° F | 95% | 758 mmHg | 0 in | - | 72 W/m² | - |
| 1788156903 | 58° F | 95% | 757.9 mmHg | 0 in | - | 31 W/m² | - |
| 1788156603 | 58° F | 96% | 757.9 mmHg | 0 in | - | 51 W/m² | - |
| 1788156303 | 58° F | 96% | 757.8 mmHg | 0 in | - | 32 W/m² | - |
| 1788156003 | 57° F | 96% | 758 mmHg | 0 in | - | 23 W/m² | - |
| 1788155703 | 57° F | 96% | 758 mmHg | 0 in | - | 17 W/m² | - |
| 1788155403 | 57° F | 96% | 757.8 mmHg | 0 in | - | 16 W/m² | - |
| 1788155103 | 57° F | 96% | 757.6 mmHg | 0.01 in | - | 15 W/m² | - |
* Rain latest hour (hover to see other rain measurements)
** Current wind speed in m/s (hover to see current wind gust speed)